Theta_e
293 294 290 287 287 286 286 285 285 288 288 284 286 287 289 293 293 292 293 293 293 294 296 297 298 298 297 297 296 296 295 295 294 294 293 293 292 294 294 295 297 296 297 296
293 290 288 289 288 287 286 284 285 287 286 285 285 284 288 290 290 291 291 292 293 294 294 295 296 296 296 296 297 296 295 295 294 293 293 293 292 293 293 294 295 296 296 297
290 288 288 287 287 285 286 284 284 282 285 287 283 286 290 288 290 291 292 293 293 294 293 294 294 295 296 296 296 296 295 294 294 293 292 292 293 293 292 294 294 294 294 295
288 288 286 286 284 285 284 285 283 282 281 281 284 279 287 289 287 288 291 292 293 293 293 294 294 295 296 297 297 296 295 294 294 292 290 290 289 289 291 292 293 293 293 292
288 286 285 284 284 285 283 285 283 281 280 278 281 279 286 286 285 287 290 292 292 293 293 293 294 295 296 297 296 296 295 294 293 291 290 289 289 291 291 291 290 291 291 292
285 288 287 286 285 285 285 282 281 280 280 277 275 278 284 287 286 287 289 290 290 291 292 292 293 294 294 295 295 295 294 293 291 289 289 289 289 289 289 289 288 288 288 289
283 284 285 286 283 285 283 282 280 279 278 279 273 276 283 287 287 288 288 289 290 291 291 291 291 292 292 292 294 294 292 289 288 288 289 290 289 288 287 286 285 284 285 286
283 281 283 284 283 281 282 280 279 274 276 278 271 276 285 286 286 289 288 289 289 289 290 291 291 291 290 291 291 291 290 287 287 288 289 289 289 288 287 285 284 285 285 286
282 280 283 283 285 283 281 278 279 276 269 273 281 283 286 285 284 286 287 287 288 290 291 291 291 290 289 289 290 289 286 285 286 288 288 288 288 287 285 285 285 286 286 287
282 280 280 282 284 282 281 281 278 279 273 273 280 279 281 286 285 285 285 288 289 289 289 291 290 289 288 288 288 286 285 284 287 287 287 287 286 286 285 285 285 285 286 287
283 281 279 280 279 281 278 279 278 278 277 275 274 280 288 286 285 284 286 288 286 286 288 289 288 287 287 287 285 284 284 286 286 287 286 286 286 286 286 285 285 286 287 288
284 282 279 282 282 282 282 282 281 278 276 276 274 276 285 287 286 284 284 285 287 287 287 287 287 285 285 286 284 283 283 285 286 285 285 285 285 285 285 285 286 287 287 289
283 280 277 278 277 279 278 280 281 278 278 276 275 279 285 283 283 285 284 287 287 287 286 286 285 284 284 284 282 282 283 285 285 285 284 284 284 283 283 284 286 286 287 287
284 281 279 278 281 282 276 279 279 278 276 278 278 279 284 286 286 287 287 287 287 286 286 286 284 283 283 281 279 279 281 283 283 283 282 282 282 283 283 284 285 286 286 286
283 277 280 281 281 280 279 279 279 276 277 276 279 280 284 286 286 286 287 286 285 285 286 286 285 284 283 280 278 278 279 280 280 280 280 281 282 283 283 283 284 285 285 285
285 279 275 275 280 281 278 278 279 278 279 278 279 278 285 286 286 285 286 285 284 285 286 286 285 283 281 279 278 277 278 277 278 279 279 280 281 281 282 282 283 283 284 284
281 279 274 275 275 273 271 274 278 280 281 280 275 281 286 285 284 285 286 286 285 285 286 285 285 284 283 278 277 275 277 277 277 278 279 280 280 280 281 282 282 282 282 284
281 279 279 275 275 269 281 284 282 281 282 282 281 283 285 285 286 286 286 285 285 285 285 285 284 282 281 278 273 272 273 275 276 278 280 281 279 278 280 282 281 282 283 283
285 280 277 274 274 278 281 283 279 277 280 284 282 282 284 286 284 286 288 288 286 286 285 284 283 280 277 273 271 270 273 276 276 278 280 281 281 280 281 281 281 282 282 282
280 283 277 276 271 270 280 283 285 283 275 286 286 284 285 284 280 286 289 287 286 286 286 285 284 282 279 279 278 274 274 276 278 279 278 279 281 281 281 282 282 283 283 282
273 275 274 275 273 277 283 281 282 274 279 286 286 285 285 282 287 290 288 287 287 287 286 286 284 282 280 280 279 277 278 278 280 280 280 280 280 281 281 282 282 282 282 282
274 273 274 274 273 271 284 279 278 285 286 284 284 285 286 286 288 288 287 287 287 287 287 285 283 281 281 279 278 277 277 280 279 279 280 279 279 280 281 280 281 280 281 280
274 279 278 278 278 285 284 285 285 287 284 285 284 286 286 286 286 286 287 287 287 287 285 283 282 282 280 278 277 277 278 278 277 277 276 277 277 279 279 280 279 280 280 279
282 284 279 279 283 284 284 284 286 285 285 285 285 285 286 285 285 284 284 285 285 285 284 283 280 279 279 278 276 277 277 277 275 276 276 276 277 278 278 279 280 279 279 279
281 280 277 278 281 283 285 285 286 285 285 284 284 284 284 285 285 285 284 285 285 285 284 282 279 279 279 279 276 275 275 275 275 276 276 277 277 278 278 279 279 279 279 280
282 279 277 276 283 283 284 287 287 284 284 285 284 284 285 284 284 285 285 285 285 285 284 281 280 279 280 278 276 275 274 274 276 276 276 277 277 277 278 279 279 281 281 281
Wind_Speed
3 1 1 2 2 2 3 5 9 9 4 6 13 14 22 17 16 17 16 14 13 12 8 7 9 9 9 7 7 6 6 6 5 6 7 7 8 9 9 9 12 13 11 13
0 0 3 3 2 2 3 4 6 8 2 5 13 20 24 18 7 6 4 5 5 5 6 8 10 10 9 9 8 7 7 7 6 6 7 7 9 9 10 10 12 13 13 12
3 4 2 2 2 4 4 4 6 6 10 8 12 13 6 4 4 4 4 2 3 6 7 8 9 10 10 10 9 8 8 8 8 9 8 8 9 9 9 9 9 10 13 13
3 2 1 2 2 2 3 4 3 5 7 4 5 7 11 6 6 7 8 7 7 7 5 4 6 8 10 10 8 8 9 9 8 9 9 12 11 12 10 10 9 10 14 15
3 1 1 1 3 1 3 3 3 2 3 5 4 4 4 3 6 8 9 6 6 4 2 2 6 9 10 9 9 9 9 9 9 9 10 10 12 11 10 11 14 13 12 14
2 1 3 3 2 2 2 4 4 3 2 5 3 4 5 1 1 7 8 7 6 6 4 2 4 6 9 9 9 9 10 10 10 10 11 13 15 15 12 12 11 10 10 9
2 2 2 1 3 3 1 3 3 4 4 3 1 5 10 5 1 5 8 7 7 4 3 8 10 9 9 10 9 8 9 11 10 11 11 13 14 15 16 14 10 12 9 9
3 3 2 2 2 2 3 1 3 6 3 6 2 7 2 2 1 7 1 2 3 5 6 8 12 11 11 10 8 8 9 10 10 11 12 12 13 8 9 10 10 9 9 9
3 2 3 3 2 1 4 3 3 1 2 3 5 5 11 3 3 7 6 4 5 7 8 10 14 11 10 9 8 7 8 10 10 11 11 12 12 12 11 14 11 9 11 10
2 4 1 2 1 3 2 2 2 3 4 6 5 5 8 1 1 0 7 4 4 8 9 10 11 11 8 7 6 7 8 9 11 12 11 11 12 12 12 12 12 13 12 14
3 2 4 2 7 5 4 4 3 3 3 5 7 1 4 5 5 6 3 4 7 8 10 9 9 9 8 7 6 7 7 8 10 10 11 12 12 12 12 11 12 11 12 12
4 3 5 5 4 2 2 3 7 5 6 5 5 8 5 4 1 2 7 8 9 8 9 7 8 8 8 7 6 7 7 7 9 10 11 12 12 11 11 11 11 10 11 10
4 4 4 5 3 3 5 9 6 2 3 10 7 7 1 3 4 7 10 9 8 8 7 6 6 6 7 5 5 6 6 7 8 9 10 11 11 11 12 12 11 11 11 11
3 5 8 10 4 4 5 8 11 10 7 11 16 21 14 12 12 12 10 7 8 10 8 6 5 5 5 4 4 5 6 6 7 9 10 10 10 11 11 11 11 11 10 10
6 8 12 16 14 8 8 8 13 17 16 15 18 22 21 14 4 9 6 13 11 11 7 6 5 5 5 4 4 4 4 5 6 8 8 8 10 10 11 11 11 10 9 9
7 5 1 9 14 18 16 18 19 19 23 21 24 30 28 22 18 15 13 9 10 10 7 6 5 5 6 5 4 4 4 4 4 6 7 6 9 9 8 9 9 8 9 9
6 6 5 13 2 2 10 17 23 20 18 17 18 29 15 13 9 8 8 6 10 11 8 6 5 5 5 5 4 5 4 3 4 5 6 6 7 7 8 7 8 8 9 8
6 9 5 8 2 18 6 6 16 18 21 19 17 19 7 8 3 6 8 9 11 8 7 6 5 4 4 3 4 2 3 5 4 5 5 5 5 6 6 7 8 8 8 8
20 9 8 10 14 19 20 11 9 11 13 20 25 21 17 6 4 13 10 8 10 6 6 5 5 4 3 5 5 4 4 5 4 5 4 3 6 7 6 7 8 7 7 7
6 17 13 13 11 16 2 0 3 5 20 15 20 21 15 12 8 5 7 6 7 8 7 6 6 7 7 8 8 7 6 6 6 4 4 3 4 5 6 5 6 6 6 6
5 7 21 19 18 15 11 9 8 10 6 2 5 16 13 12 8 4 6 6 6 6 6 6 7 8 9 7 8 9 7 8 5 3 4 4 2 4 5 4 4 5 5 5
13 10 11 11 11 23 13 10 14 10 1 2 3 9 11 13 8 6 6 6 7 8 7 7 7 8 7 8 8 8 8 5 5 4 4 3 2 2 3 3 2 3 4 4
23 18 16 16 12 7 11 14 18 9 4 4 3 9 9 9 9 8 8 6 7 9 6 4 7 7 7 9 10 9 5 6 5 4 3 3 0 1 2 3 2 2 3 3
17 14 17 19 21 19 10 11 11 3 13 11 6 6 7 11 8 8 8 8 7 7 8 5 6 7 8 9 10 9 6 6 5 5 4 3 2 2 1 1 2 2 3 3
6 2 6 15 16 16 19 12 16 15 15 12 9 9 13 12 12 12 12 11 9 9 6 5 7 8 10 8 10 9 8 8 7 5 5 5 3 3 3 2 2 2 3 3
18 24 18 18 12 13 18 15 16 16 17 17 15 16 14 12 15 14 13 12 9 10 6 6 8 8 10 9 10 10 10 11 9 7 6 6 5 4 4 4 4 10 9 9
Wind_Direction
43 221 337 12 25 359 332 304 290 292 59 308 273 277 279 279 266 258 258 255 259 259 265 225 194 194 203 218 232 246 272 288 304 306 309 304 301 300 297 291 297 294 287 287
349 260 54 82 17 326 315 318 292 289 53 293 294 289 276 283 274 253 230 205 190 185 182 182 189 201 214 232 236 254 269 287 296 297 295 294 293 288 289 286 278 280 283 280
347 65 110 317 341 318 281 268 300 294 323 257 297 273 220 161 186 180 196 157 164 171 179 187 205 218 227 238 250 262 275 287 293 295 294 288 285 279 282 285 296 296 292 288
48 77 275 324 303 312 282 19 317 321 336 298 18 289 280 177 209 198 172 185 142 146 161 191 218 234 245 254 258 269 272 282 291 295 289 286 288 290 291 296 291 293 291 285
70 254 262 321 12 331 346 337 313 294 274 317 158 248 259 157 168 167 166 147 127 123 138 213 248 258 264 268 264 270 279 282 289 287 283 285 286 289 297 293 294 289 289 287
89 47 336 24 78 22 78 306 264 247 240 241 92 284 269 280 206 135 142 140 140 117 86 15 304 289 283 275 262 264 275 282 288 284 284 284 288 293 294 293 296 293 290 292
179 158 102 310 245 152 275 281 270 224 211 296 338 264 264 298 22 153 171 164 137 123 49 9 335 316 302 295 276 263 277 283 289 289 288 289 292 293 292 299 297 289 288 284
279 229 168 4 300 326 193 327 304 287 297 345 188 242 232 126 310 259 75 140 222 250 265 313 336 316 301 298 284 278 283 285 294 296 297 299 296 291 292 286 283 280 278 280
267 190 135 29 351 295 135 211 39 285 117 266 239 248 268 68 345 235 202 271 257 289 281 297 318 301 296 292 288 287 286 292 297 302 302 299 297 296 294 290 285 281 277 274
100 270 162 154 218 83 258 47 188 186 271 265 227 252 251 350 51 282 175 204 309 289 276 298 300 299 298 289 283 282 288 294 296 300 302 301 303 299 293 290 282 285 284 283
150 239 128 205 202 181 148 202 221 311 255 271 297 216 186 208 189 191 238 276 262 265 272 274 285 295 287 272 265 276 285 288 298 305 306 304 301 302 299 294 291 285 282 281
173 264 254 228 119 287 241 255 209 236 182 243 292 270 203 195 180 232 266 260 269 247 263 261 287 291 275 259 263 278 287 296 309 311 309 306 308 309 307 296 292 292 286 292
172 216 269 194 190 190 226 202 221 317 295 240 263 264 50 159 220 232 251 271 271 281 276 257 267 267 262 260 271 283 293 305 312 312 314 309 315 318 307 305 304 305 302 304
167 242 252 264 13 104 210 215 220 209 236 259 231 267 267 261 284 304 297 278 276 285 274 266 260 250 239 230 251 274 283 297 311 316 309 314 318 313 310 312 312 314 314 313
201 245 245 255 265 239 249 231 213 212 229 241 259 267 269 272 259 287 291 300 300 287 259 249 250 238 218 226 234 247 265 286 303 307 299 315 321 316 319 320 322 325 323 325
204 253 199 260 256 252 242 244 244 239 241 254 255 266 263 284 281 269 270 270 280 281 272 260 249 233 223 216 219 227 247 269 303 297 296 312 324 324 325 327 332 337 341 341
207 218 196 261 81 300 251 226 229 235 229 230 239 244 272 266 251 248 253 234 265 276 275 273 260 241 210 201 199 220 233 279 279 290 285 335 321 316 333 337 345 350 353 351
216 203 217 265 257 254 251 191 224 234 243 220 246 249 228 230 234 264 238 245 274 261 259 254 246 229 214 193 194 200 228 247 261 282 296 338 314 306 329 349 354 357 357 357
217 205 243 246 237 275 266 242 196 200 253 219 229 243 236 218 274 274 221 207 236 248 246 239 224 211 171 203 196 189 232 236 242 256 284 330 325 331 356 1 357 359 5 11
255 230 230 234 245 257 21 322 154 139 269 227 228 231 228 171 206 228 156 191 231 234 236 234 222 215 217 210 190 194 223 223 236 223 264 278 322 328 347 6 355 354 3 12
201 213 226 232 242 264 242 141 141 195 254 2 224 220 197 184 191 126 157 233 235 253 263 236 221 219 219 199 195 218 215 224 220 204 248 262 297 315 326 339 357 355 357 357
206 202 215 228 238 250 139 140 211 240 56 205 243 218 190 201 189 212 222 244 249 259 248 220 226 225 209 188 194 218 222 209 172 200 240 265 309 317 320 320 352 2 9 24
242 221 223 206 221 238 184 222 224 271 289 277 233 214 202 205 230 238 249 245 246 253 252 208 217 231 207 193 197 212 209 167 176 185 196 235 245 330 339 329 10 31 34 34
237 228 231 252 252 256 224 246 270 256 245 245 232 259 229 234 233 248 256 253 240 244 238 204 194 226 227 198 197 207 153 157 166 180 180 187 190 138 84 11 9 57 40 56
276 229 236 249 266 298 280 260 252 250 251 257 247 233 245 254 255 250 259 251 241 241 228 188 203 223 236 196 200 186 165 160 183 180 169 174 162 152 124 72 93 87 65 50
249 246 242 248 236 237 262 258 239 229 240 247 244 255 246 232 246 251 251 242 240 239 220 207 216 218 233 199 202 183 171 170 179 177 176 176 161 165 159 142 104 70 75 72